Location: Beetenbrück
(52.8113°N, 9.5946°E)
Time: 21:11:56
(UTC+00:00)

Cosmos 2151 Rocket - Pass Details

Date: 14 April 2026
Orbit: 611 x 636 km, 82.5° (Epoch: 12 May)

Event Time Altitude Azimuth Distance (km) Brightness Sun altitude
Exits shadow 23:04:59 56° 346° (NNW) 745 4.1 -27.4°
Drops below altitude 10° 23:08:34 10° 8° (N) 1,994 7.1 -27.4°
Sets 23:10:49 0° 10° (N) 2,901 8.2 -27.5°
